Content
SEND FEEDBACK

Daily
Averages
Monthly
Summary
United States of America

ENKA, NORTH CAROLINA


Home > North America > United States > North Carolina
Elevation: 2122 feet     Latitude: 35 33N     Longitude: 082 39W

WEATHER
 
SELECT A DAY
Number of Records: 228,713;   Date Range: 1/1/95 - 9/29/14
 
SHARE

PRINT THIS DATA

[ ← Previous Day ]
WEATHER ALMANAC - MARCH 5, 2013
[ Next Day → ]
[ °C ]   °F
Weather ElementAverageHighLow
Temperature44.7 °F51.8 °F (2:02 pm)35.1 °F (3:54 am)
Dewpoint40 °F46.9 °F (3:54 pm)25 °F (2:54 am)
Humidity84.2 %100 % (6:35 pm)63 % (9:54 pm)
Barometer29.76 in30.02 in (2:54 am)29.64 in (7:54 pm)
Wind Speed5.1 mph16.1 mph (11:54 pm)
Wind Gust33.4 mph (11:54 pm)
Weather ElementAverage
Visibility6.4 mi
Wind DirectionESE (126.3 °)

Weather ElementTotal
Precipitation2.06 in
Heating Degree Days21.6 (Base 65)
Averaged from 46 records on March 5, 2013
WEATHER CONDITIONS BREAKOUT
WIND DIRECTION BREAKOUT
WEATHER BY HOUR - MARCH 5, 2013
[ °C ]   °F
Local TimeTemperatureDewpointHumidityBarometerVisibilityWind DirectionWind SpeedGust SpeedPrecipitationEventsConditions
2:54 AM36.0 °F25.0 °F64 %30.02 in10.0 miCalmClear
3:54 AM35.1 °F26.1 °F70 %29.99 in10.0 miCalmClear
4:54 AM35.1 °F27.0 °F72 %29.99 in10.0 miCalmPartly Cloudy
5:54 AM35.1 °F26.1 °F70 %29.99 in10.0 miCalmPartly Cloudy
6:54 AM35.1 °F28.0 °F76 %29.98 in10.0 miCalmOvercast
7:54 AM41.0 °F30.2 °F65 %29.96 in10.0 miSSE (160°)9.2 mphOvercast
8:54 AM42.1 °F30.9 °F65 %29.96 in10.0 miSE (140°)4.6 mphOvercast
9:54 AM44.1 °F36.0 °F73 %29.94 in10.0 miSouth (170°)5.8 mphOvercast
10:54 AM48.0 °F37.9 °F68 %29.92 in10.0 miSouth (180°)6.9 mphMostly Cloudy
11:32 AM46.4 °F39.2 °F76 %29.92 in10.0 miSouth (170°)4.6 mph0.00 inOvercast
11:54 AM44.1 °F37.9 °F79 %29.90 in10.0 miNNW (330°)4.6 mph0.00 inOvercast
12:18 PM46.4 °F39.2 °F76 %29.88 in10.0 miCalmOvercast
12:54 PM48.9 °F41.0 °F74 %29.85 in10.0 miSouth (190°)5.8 mphOvercast
1:15 PM50.0 °F42.8 °F76 %29.84 in10.0 miSouth (170°)8.1 mphOvercast
1:54 PM51.1 °F44.1 °F77 %29.80 in10.0 miSouth (180°)9.2 mphOvercast
2:02 PM51.8 °F44.6 °F76 %29.81 in10.0 miSouth (190°)11.5 mphOvercast
2:49 PM48.2 °F42.8 °F82 %29.79 in9.0 miSSE (150°)6.9 mph0.00 inRainLight Rain
2:54 PM48.9 °F44.1 °F83 %29.79 in6.0 miSSE (150°)6.9 mph0.00 inRainLight Rain
3:54 PM48.9 °F46.9 °F93 %29.75 in5.0 miSSE (150°)6.9 mph0.01 inOvercast
4:07 PM48.2 °F46.4 °F93 %29.73 in5.0 miSSE (160°)3.5 mphOvercast
4:33 PM48.2 °F46.4 °F93 %29.70 in6.0 miSSE (150°)5.8 mph0.00 inRainLight Rain
4:54 PM48.0 °F45.0 °F89 %29.67 in6.0 miSE (130°)6.9 mph0.01 inRainLight Rain
5:18 PM46.4 °F44.6 °F93 %29.68 in2.5 miSSE (150°)8.1 mph0.08 inRainHeavy Rain
5:44 PM46.4 °F44.6 °F93 %29.70 in2.5 miSouth (170°)4.6 mph0.27 inRainHeavy Rain
5:51 PM46.4 °F44.6 °F93 %29.70 in2.0 miSE (140°)3.5 mph0.33 inRainHeavy Rain
5:54 PM46.0 °F45.0 °F96 %29.70 in2.0 miSE (130°)5.8 mph0.35 inRainHeavy Rain
6:16 PM46.4 °F44.6 °F93 %29.66 in2.0 miSE (130°)8.1 mph0.18 inRainHeavy Rain
6:35 PM46.4 °F46.4 °F100 %29.68 in5.0 miWNW (290°)11.5 mph0.26 inRainLight Rain
6:43 PM46.4 °F44.6 °F93 %29.67 in2.0 miNNW (340°)11.5 mph0.27 inRainHeavy Rain
6:54 PM46.9 °F46.0 °F97 %29.66 in2.0 miEast (80°)4.6 mph0.30 inRainLight Rain
7:01 PM46.4 °F46.4 °F100 %29.67 in6.0 miESE (110°)3.5 mph0.00 inRainLight Rain
7:09 PM46.4 °F44.6 °F93 %29.67 in3.0 miCalm0.00 inOvercast
7:31 PM46.4 °F46.4 °F100 %29.66 in3.0 miCalm0.00 inOvercast
7:54 PM46.0 °F45.0 °F96 %29.64 in3.0 miCalm0.00 inMostly Cloudy
8:16 PM44.6 °F44.6 °F100 %29.64 in2.5 miCalmMostly Cloudy
8:19 PM44.6 °F42.8 °F93 %29.64 in1.5 miCalmMostly Cloudy
8:38 PM44.6 °F42.8 °F93 %29.64 in0.8 miNNW (340°)9.2 mphMostly Cloudy
8:50 PM44.6 °F44.6 °F100 %29.64 in1.8 miCalmMostly Cloudy
8:52 PM44.6 °F44.6 °F100 %29.64 in3.0 miCalmMostly Cloudy
8:54 PM44.1 °F44.1 °F100 %29.64 in4.0 miSSE (150°)3.5 mphMostly Cloudy
9:04 PM44.6 °F42.8 °F93 %29.65 in4.0 miVariable3.5 mphMostly Cloudy
9:11 PM46.4 °F39.2 °F76 %29.64 in7.0 miWNW (300°)11.5 mph21.9 mphScattered Clouds
9:54 PM44.1 °F32.0 °F63 %29.66 in10.0 miVariable5.8 mphClear
10:54 PM39.9 °F33.1 °F77 %29.67 in10.0 miNorth (10°)8.1 mph0.00 inRainLight Rain
11:02 PM39.2 °F32.0 °F75 %29.68 in10.0 miNorth (360°)10.4 mph17.3 mphOvercast
11:54 PM36.0 °F26.1 °F67 %29.69 in10.0 miNNW (340°)16.1 mph33.4 mphOvercast
Hourly data recorded from KAVL, located miles away from Enka, North Carolina







STORIES FROM OUR PARTNERS